CZ-6A DEB

Satellite information

Favourite Embed

Satellite Type and Status

DEBRISIN ORBIT

Key statistics

Satellite CZ-6A DEB at a glance.

Uptime

436

Days in orbit

Revolutions

≈ 14.1

Per day

Orbit

LEO

Low Earth Orbit

Inclination

89.0

Latest

Satellite identification and parameters

Extended collection of information and parameters for CZ-6A DEB.

Object identification

Identified? True

Debris? True

Object name: CZ-6A DEB

International designator: 2024-140VB

Object number (NORAD): 61338

Object ID (CCSDS): 61338

Country: PEOPLES REPUBLIC OF CHINA (PRC)

Current information (Y/N): Y

RCS size: SMALL

Orbital parameters

Period: 101.786 minutes

Inclination: 88.9957 deg

SMA: 7221.334 km

Apoapsis: 907.407 km

Periapsis: 778.992 km

RAAN: 302.6965 deg

Eccentricy: 0.00889141

Argument of periapsis: 287.0013 deg

Mean anomaly: 72.1445 deg

Mean motion: 14.14739811 rev/day

Mean motion (dot): 0.00005905 rev/day2

B* drag term: 0.0029458832 1/REarth

Two-line elements (TLE)

Creation date: Oct. 15, 2025, 6:23 p.m.

Reference frame: TEME

Reference center: EARTH

Epoch: Oct. 15, 2025, 7:28 a.m. UTC

TLE line 0: 0 CZ-6A DEB

TLE line 1: 1 61338U 24140VB 25288.31135958 .00005905 00000-0 29459-2 0 9992

TLE line 2: 2 61338 88.9957 302.6965 0088914 287.0013 72.1445 14.14739811 57465

Live tracking on map

Real-time ground track for satellite CZ-6A DEB.

In-orbit conjunctions

A list of the most updated potential collisions computed for object CZ-6A DEB.

Target Orbit TCA Probability of collision Miss distance Type
SUNSAT SSO 2025-08-22 01:38:37 0.000268487 854.0 (m) PAYLOAD
METEOR 1-13 LEO 2025-06-29 10:33:43 0.0001283302 401.0 (m) PAYLOAD
CZ-6A DEB LEO 2024-11-14 04:36:16 0.0001595274 415.0 (m) DEBRIS
PSLV R/B SSO 2024-11-08 20:53:26 0.002639378 399.0 (m) ROCKET BODY

Associated space launch

18 Low Earth Orbit communication satellites with Ku, Q and V band payloads for the G60 constellation operated by Shanghai Spacecom Satellite Technology (SSST) with funding backed by the Shanghai local government. Initial constellation will consist of 1296 satellites by 2027 with long term plans to expand it to 12000 satellites.

CZ-6A DEB was lifted into orbit during the mission ‘Long March 6A | G60 Polar Group 01’, on board a Long March 6A space rocket.

The launch took place on Aug. 6, 2024, 6:42 a.m. from Launch Complex 9A.

For more information about the launch, click the button.

Launch to space Long March 6A | G60 Polar Group 01
Long March 6A | G60 Polar Group 01

Agency: N/A

Status: Launch Successful

Launch date: Aug. 6, 2024, 6:42 a.m. UTC

Rocket: Long March 6A

Launch pad: Launch Complex 9A

Location: Taiyuan Satellite Launch Center, People's Republic of China

...

Latest news about this satellite

News about space launch
Brightness of first Chinese broadband constellation satellites alarms astronomers

The first satellites of a Chinese broadband constellation are significantly brighter than those of Western systems, posing a new challenge for astronomers.

News about space launch
Chinese rocket stage breaks up into cloud of more than 700 pieces of space debris

HELSINKI — A Chinese Long March 6A rocket’s upper stage has fragmented into a cloud of over 700 pieces of space debris, adding to concerns about long-term orbital safety. China […]

News about space launch
China's Thousand Sails Megaconstellation Kicks Off with Dangerous Debris Field

China's Thousand Sails Megaconstellation Kicks Off with Dangerous Debris Field


Newsletter sign-up

Weekly statistics, charts and insights to help you stay on top of the space industry.